Camarillo, CA

3:50 PM PDT on August 28, 2016 (GMT -0700)
Camarillo

Weather History for KCMA - November, 2012

Change the Weather History Date:

Friday, November 2, 2012

  Actual Average Record
Temperature  
Mean Temperature 61 °F 61 °F  
Max Temperature 70 °F 72 °F 98 °F (1997)
Min Temperature 51 °F 50 °F 41 °F (1956)
Degree Days  
Heating Degree Days 4 5  
Month to date heating degree days 8 10  
Since 1 July heating degree days 83 133  
Cooling Degree Days 0 1  
Month to date cooling degree days 0 2  
Year to date cooling degree days 366 318  
Growing Degree Days 11 (Base 50)    
Moisture  
Dew Point 52 °F    
Average Humidity 73    
Maximum Humidity 89    
Minimum Humidity 57    
Precipitation  
Precipitation 0.00 in 0.05 in 0.40 in (1983)
Month to date precipitation 0.00 0.11  
Year to date precipitation 5.72 11.96  
Since 1 July precipitation 0.04  
Sea Level Pressure  
Sea Level Pressure 29.99 in    
Wind  
Wind Speed 4 mph (NNW)    
Max Wind Speed 13 mph    
Max Gust Speed 16 mph    
Visibility 8 miles    
Events      
T = Trace of Precipitation, MM = Missing Value Source: NWS Daily Summary

Daily Weather History Graph

Daily Weather History Graph

Search for Another Location

Airport or City:

Trip Planner

Search our weather history database for the weather conditions in past years. The results will help you decide how hot, cold, wet, or windy it might be!

Date:

Astronomy

Nov. 02, 2012 Rise Set
Actual Time 7:17 AM PDT 6:01 PM PDT
Civil Twilight 6:51 AM PDT 6:27 PM PDT
Nautical Twilight 6:21 AM PDT 6:57 PM PDT
Astronomical Twilight 5:52 AM PDT 7:26 PM PDT
Moon 8:58 PM PDT (11/2) 10:36 AM PDT (11/2)
Length of Visible Light 11h 36m
Length of Day
10h 44m
Waning Gibbous, 86% of the Moon is Illuminated
Nov 2
Waning Gibbous
Nov 6
Last Quarter
Nov 13
New
Nov 20
First Quarter
Nov 28
Full

Hourly Weather History & Observations

Time (PDT) Temp. Dew Point Humidity Pressure Visibility Wind Dir Wind Speed Gust Speed Precip Events Conditions
12:55 AM 55.0 °F 50.0 °F 83% 30.01 in 8.0 mi ENE 4.6 mph - N/A   Partly Cloudy
1:55 AM 55.0 °F 50.0 °F 83% 30.01 in 7.0 mi ENE 3.5 mph - N/A   Clear
2:55 AM 54.0 °F 48.9 °F 83% 30.00 in 7.0 mi Calm Calm - N/A   Clear
3:55 AM 54.0 °F 48.9 °F 83% 29.99 in 8.0 mi ENE 5.8 mph - N/A   Clear
4:55 AM 52.0 °F 48.0 °F 86% 30.00 in 7.0 mi Calm Calm - N/A   Clear
5:55 AM 54.0 °F 48.9 °F 83% 30.00 in 7.0 mi ENE 3.5 mph - N/A   Clear
6:55 AM 53.1 °F 48.0 °F 83% 30.00 in 6.0 mi NE 6.9 mph - N/A   Haze
7:55 AM 55.0 °F 50.0 °F 83% 30.01 in 4.0 mi NE 8.1 mph - N/A   Haze
8:55 AM 60.1 °F 52.0 °F 75% 30.03 in 5.0 mi NNE 3.5 mph - N/A   Haze
9:55 AM 64.0 °F 53.1 °F 67% 30.04 in 6.0 mi Calm Calm - N/A   Haze
10:55 AM 66.0 °F 53.1 °F 63% 30.04 in 10.0 mi WSW 8.1 mph - N/A   Clear
11:55 AM 68.0 °F 54.0 °F 61% 30.03 in 10.0 mi SW 6.9 mph - N/A   Partly Cloudy
12:55 PM 68.0 °F 53.1 °F 59% 30.00 in 10.0 mi WSW 3.5 mph - N/A   Partly Cloudy
1:55 PM 69.1 °F 54.0 °F 58% 29.97 in 10.0 mi SW 6.9 mph - N/A   Clear
2:55 PM 70.0 °F 53.1 °F 55% 29.96 in 10.0 mi West 10.4 mph - N/A   Clear
3:55 PM 69.1 °F 53.1 °F 57% 29.96 in 10.0 mi WSW 10.4 mph - N/A   Clear
4:55 PM 66.0 °F 55.0 °F 68% 29.96 in 10.0 mi WSW 6.9 mph - N/A   Clear
5:55 PM 64.0 °F 55.0 °F 73% 29.97 in 10.0 mi West 8.1 mph - N/A   Clear
6:55 PM 63.0 °F 55.9 °F 78% 29.97 in 10.0 mi Calm Calm - N/A   Clear
7:55 PM 60.1 °F 55.0 °F 83% 29.97 in 10.0 mi Calm Calm - N/A   Clear
8:55 PM 60.1 °F 53.1 °F 78% 29.98 in 9.0 mi Calm Calm - N/A   Clear
9:55 PM 59.0 °F 53.1 °F 81% 29.99 in 8.0 mi Calm Calm - N/A   Clear
10:55 PM 57.9 °F 52.0 °F 81% 29.99 in 9.0 mi ENE 4.6 mph - N/A   Clear